KE7YUP Weather Reports


time (UTC)temp
F
wind
direction
speed
knots
gust
knots
rain 1hr
in
rain 24hr
in
rain mn
in
humidity
%
barometer
mb
20260509101417 61 290 7.0 10.4 0.00 0.00 0.00 27 1019.1
20260509100437 62 308 8.7 19.1 0.00 0.00 0.00 27 1019.4
20260509095437 62 340 7.0 21.7 0.00 0.00 0.00 26 1019.2
20260509094417 63 347 7.0 14.8 0.00 0.00 0.00 26 1019.1
20260509093416 63 297 12.2 22.6 0.00 0.00 0.00 26 1019.0
20260509092417 63 325 16.5 31.3 0.00 0.00 0.00 27 1019.0
20260509091417 63 302 7.8 14.8 0.00 0.00 0.00 27 1018.8
20260509090416 64 322 9.6 15.6 0.00 0.00 0.00 27 1019.2
20260509085417 64 320 10.4 27.8 0.00 0.00 0.00 27 1019.2
20260509084416 64 347 7.0 14.8 0.00 0.00 0.00 27 1019.2
20260509083417 65 333 2.6 7.0 0.00 0.00 0.00 26 1018.8
20260509082416 65 13 5.2 11.3 0.00 0.00 0.00 26 1018.8
20260509081416 65 320 8.7 22.6 0.00 0.00 0.00 26 1018.8
20260509080416 65 339 4.3 13.9 0.00 0.00 0.00 26 1018.8
20260509075417 65 312 10.4 19.1 0.00 0.00 0.00 27 1018.9
20260509074417 65 299 9.6 16.5 0.00 0.00 0.00 28 1018.9
20260509073457 65 308 8.7 14.8 0.00 0.00 0.00 32 1018.9
20260509072417 66 247 3.5 7.0 0.00 0.00 0.00 29 1018.9
20260509071416 66 194 3.5 6.1 0.00 0.00 0.00 28 1018.6
20260509070416 67 246 3.5 6.1 0.00 0.00 0.00 28 1018.4
20260509065416 67 305 0.9 1.7 0.00 0.00 0.00 28 1018.3
20260509064416 67 314 2.6 8.7 0.00 0.00 0.00 29 1018.3
20260509063416 67 33 4.3 7.8 0.00 0.00 0.00 28 1018.3
20260509062416 67 298 1.7 5.2 0.00 0.00 0.00 27 1018.3
20260509061416 66 2 7.8 13.9 0.00 0.00 0.00 27 1018.2
20260509060416 64 309 9.6 13.0 0.00 0.00 0.00 30 1018.0
20260509055435 66 274 1.7 2.6 0.00 0.00 0.00 28 1018.1
20260509054415 67 274 2.6 5.2 0.00 0.00 0.00 27 1018.5
20260509053415 67 272 4.3 6.1 0.00 0.00 0.00 27 1018.5
20260509052416 67 287 4.3 6.1 0.00 0.00 0.00 27 1018.5
20260509051415 67 283 5.2 7.0 0.00 0.00 0.00 26 1018.3
20260509050415 67 278 4.3 6.1 0.00 0.00 0.00 26 1018.2
20260509045435 67 271 2.6 6.1 0.00 0.00 0.00 27 1018.3
20260509044415 67 264 2.6 3.5 0.00 0.00 0.00 27 1018.0
20260509043415 67 277 5.2 7.0 0.00 0.00 0.00 27 1017.9
20260509042415 67 319 4.3 6.1 0.00 0.00 0.00 26 1017.8
20260509041415 67 312 2.6 6.1 0.00 0.00 0.00 26 1017.3
20260509040415 67 314 4.3 7.0 0.00 0.00 0.00 26 1017.2
20260509035416 67 320 2.6 4.3 0.00 0.00 0.00 26 1017.3
20260509034435 67 320 0.9 1.7 0.00 0.00 0.00 27 1016.9
20260509033415 67 311 4.3 7.0 0.00 0.00 0.00 26 1016.8
20260509032435 66 289 4.3 7.0 0.00 0.00 0.00 27 1016.7
20260509031435 65 333 1.7 1.7 0.00 0.00 0.00 28 1016.2
20260509030415 66 333 2.6 3.5 0.00 0.00 0.00 28 1016.3
20260509025415 67 315 4.3 7.0 0.00 0.00 0.00 26 1016.4
20260509024415 68 312 7.8 9.6 0.00 0.00 0.00 27 1016.3
20260509023435 68 324 5.2 7.0 0.00 0.00 0.00 26 1016.3
20260509022415 68 309 5.2 7.0 0.00 0.00 0.00 26 1016.3
20260509021435 69 300 2.6 3.5 0.00 0.00 0.00 25 1015.8
20260509020415 71 298 1.7 3.5 0.00 0.00 0.00 24 1016.2
20260509015415 72 317 4.3 7.0 0.00 0.00 0.00 22 1016.5
20260509014415 73 308 3.5 7.8 0.00 0.00 0.00 20 1015.4
20260509013415 74 317 4.3 7.8 0.00 0.00 0.00 20 1015.8
20260509012415 74 334 6.1 8.7 0.00 0.00 0.00 20 1015.8
20260509011415 74 3 5.2 9.6 0.00 0.00 0.00 22 1016.2
20260509010435 75 326 6.1 10.4 0.00 0.00 0.00 22 1016.3
20260509005417 75 354 2.6 9.6 0.00 0.00 0.00 21 1016.3
20260509004417 74 28 10.4 13.0 0.00 0.00 0.00 22 1015.9
20260509003417 74 39 10.4 13.0 0.00 0.00 0.00 22 1016.3
20260509002417 74 359 7.0 9.6 0.00 0.00 0.00 22 1016.4
20260509001417 74 38 6.1 10.4 0.00 0.00 0.00 22 1016.0
20260509000418 74 6 6.1 11.3 0.00 0.00 0.00 22 1016.1
20260508235417 74 38 11.3 15.6 0.00 0.00 0.00 22 1016.2
20260508234417 74 36 10.4 15.6 0.00 0.00 0.00 22 1016.8
20260508233417 74 15 9.6 14.8 0.00 0.00 0.00 22 1016.8
20260508232417 74 42 9.6 13.9 0.00 0.00 0.00 23 1017.0
20260508231437 74 38 11.3 15.6 0.00 0.00 0.00 22 1016.7
20260508230417 73 45 9.6 13.0 0.00 0.00 0.00 23 1016.7
20260508225418 73 31 7.0 14.8 0.00 0.00 0.00 23 1016.9
20260508224417 73 12 7.8 17.4 0.00 0.00 0.00 24 1017.9
20260508223417 73 44 13.0 18.2 0.00 0.00 0.00 24 1018.1
20260508222417 73 35 7.8 16.5 0.00 0.00 0.00 24 1018.1
20260508221417 73 36 13.9 21.7 0.00 0.00 0.00 24 1018.4
20260508220417 72 10 5.2 13.9 0.00 0.00 0.00 25 1018.7
20260508215417 72 43 11.3 17.4 0.00 0.00 0.00 24 1018.7
20260508214417 73 36 11.3 16.5 0.00 0.00 0.00 24 1018.8
20260508213416 73 43 12.2 17.4 0.00 0.00 0.00 24 1018.9
20260508212416 73 7 8.7 19.1 0.00 0.00 0.00 24 1019.1
20260508211416 72 47 13.9 20.9 0.00 0.00 0.00 24 1018.6
20260508210417 72 39 11.3 16.5 0.00 0.00 0.00 25 1018.7
20260508205436 72 42 10.4 17.4 0.00 0.00 0.00 24 1018.9
20260508204416 72 38 9.6 14.8 0.00 0.00 0.00 25 1018.6
20260508203416 72 360 9.6 20.0 0.00 0.00 0.00 24 1018.6
20260508202417 72 11 9.6 16.5 0.00 0.00 0.00 25 1018.8
20260508201416 72 359 11.3 16.5 0.00 0.00 0.00 25 1019.0
20260508200416 73 31 13.0 17.4 0.00 0.00 0.00 23 1019.2
20260508195416 72 350 8.7 16.5 0.00 0.00 0.00 21 1018.9
20260508194416 72 308 7.0 13.0 0.00 0.00 0.00 22 1019.4
20260508193416 72 324 10.4 18.2 0.00 0.00 0.00 23 1019.6
20260508192416 71 336 9.6 13.9 0.00 0.00 0.00 22 1019.7
20260508191416 71 311 10.4 17.4 0.00 0.00 0.00 24 1019.7
20260508190416 71 356 11.3 13.0 0.00 0.00 0.00 23 1019.9
20260508185416 71 305 8.7 18.2 0.00 0.00 0.00 23 1020.2
20260508184457 70 308 13.0 18.2 0.00 0.00 0.00 25 1020.7
20260508183416 70 355 9.6 13.0 0.00 0.00 0.00 31 1020.7
20260508182456 69 352 6.1 10.4 0.00 0.00 0.00 32 1020.5
20260508181436 70 355 7.8 12.2 0.00 0.00 0.00 30 1020.9
20260508180416 70 41 11.3 13.0 0.00 0.00 0.00 32 1020.9
20260508175416 70 354 4.3 8.7 0.00 0.00 0.00 30 1020.8
20260508174416 69 204 4.3 7.8 0.00 0.00 0.00 35 1020.7
20260508173416 69 164 1.7 7.0 0.00 0.00 0.00 35 1020.8
20260508172416 70 134 4.3 7.8 0.00 0.00 0.00 35 1020.7
20260508171436 69 95 2.6 8.7 0.00 0.00 0.00 35 1020.5
20260508170416 68 108 2.6 5.2 0.00 0.00 0.00 36 1020.4
20260508165416 67 105 5.2 8.7 0.00 0.00 0.00 38 1020.1
20260508164416 67 106 2.6 4.3 0.00 0.00 0.00 39 1020.8
20260508163416 67 103 0.9 5.2 0.00 0.00 0.00 38 1020.8
20260508162416 66 137 3.5 6.1 0.00 0.00 0.00 41 1020.4
20260508161416 66 139 1.7 2.6 0.00 0.00 0.00 40 1020.5
20260508160416 65 149 2.6 6.1 0.00 0.00 0.00 41 1020.2
20260508155416 65 102 2.6 5.2 0.00 0.00 0.00 41 1020.2
20260508154436 64 88 0.9 3.5 0.00 0.00 0.00 43 1020.3
20260508153416 63 159 0.0 0.9 0.00 0.00 0.00 44 1019.9
20260508152416 62 84 1.7 3.5 0.00 0.00 0.00 47 1019.9
20260508151416 62 149 0.9 2.6 0.00 0.00 0.00 48 1020.3
20260508150436 62 117 2.6 4.3 0.00 0.00 0.00 48 1020.2
20260508145416 62 116 2.6 3.5 0.00 0.00 0.00 49 1020.2
20260508144415 61 111 3.5 5.2 0.00 0.00 0.00 48 1020.1
20260508143416 62 150 2.6 4.3 0.00 0.00 0.00 48 1020.2
20260508142415 61 142 0.9 0.9 0.00 0.00 0.00 45 1020.2
20260508141416 60 151 0.9 1.7 0.00 0.00 0.00 49 1020.4
20260508140415 59 308 0.0 0.9 0.00 0.00 0.00 50 1020.2
20260508135415 59 0.0 0.0 0.00 0.00 0.00 45 1020.1
20260508134416 57 309 0.9 1.7 0.00 0.00 0.00 45 1020.0
20260508133436 55 309 0.0 1.7 0.00 0.00 0.00 53 1019.6
20260508132415 54 309 0.0 0.9 0.00 0.00 0.00 50 1019.3
20260508131416 52 0.0 0.0 0.00 0.00 0.00 51 1018.7
20260508130415 53 309 0.9 1.7 0.00 0.00 0.00 49 1018.9
20260508125415 53 309 0.0 1.7 0.00 0.00 0.00 48 1018.9
20260508124416 54 309 1.7 3.5 0.00 0.00 0.00 46 1018.6
20260508123415 54 355 1.7 2.6 0.00 0.00 0.00 45 1018.6
20260508122415 54 335 3.5 4.3 0.00 0.00 0.00 45 1018.4
20260508121415 54 275 2.6 3.5 0.00 0.00 0.00 45 1018.6
20260508120415 54 296 0.9 2.6 0.00 0.00 0.00 46 1018.7
20260508115416 53 296 0.9 3.5 0.00 0.00 0.00 47 1018.3
20260508114415 53 279 1.7 1.7 0.00 0.00 0.00 46 1018.2
20260508113415 54 279 0.9 2.6 0.00 0.00 0.00 47 1018.5
20260508112435 56 325 0.9 2.6 0.00 0.00 0.00 46 1018.6
20260508111435 56 349 2.6 3.5 0.00 0.00 0.00 46 1018.7
20260508110415 55 114 0.9 1.7 0.00 0.00 0.00 46 1018.7
20260508105415 55 297 0.0 0.9 0.00 0.00 0.00 46 1018.7
20260508104415 55 331 2.6 4.3 0.00 0.00 0.00 46 1018.3
20260508103415 57 0.0 0.0 0.00 0.00 0.00 43 1018.6
20260508102415 61 149 1.7 2.6 0.00 0.00 0.00 37 1019.3